Snowfall_Accumulation
0.0 0.0 0.0 0.0 0.0 0.0 0.0 0.0 0.1 0.0 0.0 0.0 0.0 0.0 0.0 0.0 0.0 0.0 0.0 0.0 0.0 0.0 0.0 0.0 0.0 0.0 0.0 0.0 0.0 0.0 0.0 0.0 0.0 0.0 0.0 0.0 0.0 0.0 0.0 0.0 0.0 0.0 0.0 0.0
0.0 0.0 0.0 0.0 0.0 0.0 0.0 0.0 0.0 0.0 0.0 0.0 0.0 0.0 0.0 0.0 0.0 0.0 0.0 0.0 0.0 0.0 0.0 0.0 0.0 0.0 0.0 0.0 0.0 0.0 0.0 0.0 0.0 0.0 0.0 0.0 0.0 0.0 0.0 0.0 0.0 0.0 0.0 0.0
0.1 0.0 0.0 1.2 0.0 0.0 0.0 0.0 0.0 0.0 0.0 0.0 0.0 0.0 0.0 0.0 0.0 0.0 0.0 0.0 0.0 0.0 0.0 0.0 0.0 0.0 0.0 0.0 0.0 0.0 0.0 0.0 0.0 0.0 0.0 0.0 0.0 0.0 0.0 0.0 0.0 0.0 0.0 0.0
1.4 0.4 13.6 0.1 0.0 0.0 0.0 0.0 0.0 0.0 0.0 0.0 0.0 0.0 0.0 0.0 0.0 0.0 0.0 0.0 0.0 0.0 0.0 0.0 0.0 0.0 0.0 0.0 0.0 0.0 0.0 0.0 0.0 0.0 0.0 0.0 0.0 0.0 0.0 0.0 0.0 0.0 0.0 0.0
7.1 2.5 0.0 0.0 0.0 0.0 0.0 0.0 0.0 0.0 0.0 0.0 0.0 0.0 0.0 0.0 0.0 0.0 0.0 0.0 0.0 0.0 0.0 0.0 0.0 0.0 0.0 0.0 0.0 0.0 0.0 0.0 0.0 0.0 0.0 0.0 0.0 0.0 0.0 0.0 0.0 0.0 0.0 0.0
7.4 7.6 4.2 0.0 0.0 0.0 0.0 0.1 0.0 0.0 0.0 0.0 0.0 0.0 0.0 0.0 0.0 0.0 0.0 0.0 0.0 0.0 0.0 0.0 0.0 0.0 0.0 0.0 0.0 0.0 0.0 0.0 0.0 0.0 0.0 0.0 0.0 0.0 0.0 0.0 0.0 0.3 0.0 0.0
1.2 5.5 2.5 0.0 0.0 0.0 0.4 0.0 0.0 0.0 0.0 0.0 0.0 0.0 0.0 0.0 0.0 0.0 0.0 0.0 0.0 0.0 0.0 0.0 0.0 0.0 0.0 0.0 0.0 0.0 0.0 0.0 0.0 0.0 0.0 0.0 0.0 0.0 0.0 0.0 0.0 0.1 0.1 0.1
1.3 3.7 9.3 0.0 0.0 0.0 0.1 0.0 0.0 0.0 0.0 0.0 0.0 0.0 0.0 0.0 0.0 0.0 0.0 0.0 0.0 0.0 0.0 0.0 0.0 0.0 0.0 0.0 0.0 0.0 0.0 0.0 0.0 0.0 0.0 0.0 0.0 0.0 0.0 0.0 0.1 0.1 0.2 0.6
0.2 0.8 0.0 0.0 0.0 0.0 0.0 0.0 0.0 0.0 0.0 0.0 0.0 0.0 0.0 0.0 0.0 0.0 0.0 0.0 0.0 0.0 0.0 0.0 0.0 0.0 0.0 0.0 0.0 0.0 0.0 0.1 0.0 0.0 0.0 0.0 0.0 0.0 0.4 0.0 0.4 0.2 0.9 1.2
0.1 0.0 0.0 0.0 0.0 0.0 0.0 0.0 0.0 0.0 0.0 0.0 0.0 0.0 0.0 0.0 0.0 0.0 0.0 0.0 0.0 0.0 0.0 0.0 0.0 0.0 0.0 0.0 0.0 0.0 0.0 0.0 0.0 0.1 0.0 0.1 0.5 0.5 0.7 0.8 1.2 1.5 2.0 2.5
0.0 0.0 0.0 0.0 0.0 0.0 0.0 0.0 0.0 0.0 0.0 0.0 0.0 0.0 0.0 0.0 0.0 0.0 0.0 0.0 0.0 0.0 0.0 0.0 0.0 0.0 0.0 0.0 0.0 0.0 0.0 0.0 0.0 0.1 0.0 0.1 0.5 1.6 1.6 1.9 1.6 2.2 2.2 2.0
0.4 0.0 0.0 0.0 0.0 0.0 0.0 0.0 0.0 0.0 0.0 0.0 0.0 0.0 0.0 0.0 0.0 0.0 0.0 0.0 0.0 0.0 0.0 0.0 0.0 0.0 0.0 0.0 0.0 0.0 0.0 0.0 0.2 0.2 0.3 0.4 0.6 1.3 nan nan nan nan nan 2.0
0.0 0.0 0.0 0.0 0.0 0.0 0.0 0.0 0.0 0.0 0.0 0.0 0.0 0.0 0.0 0.0 0.0 nan 0.0 0.0 0.0 0.0 0.0 0.0 0.0 0.0 0.0 0.0 0.0 0.0 0.0 0.0 0.3 0.2 0.4 0.5 0.6 1.0 3.0 4.8 nan nan nan nan
0.0 0.0 0.0 0.0 0.0 0.0 0.0 0.0 0.0 0.0 0.0 0.0 0.0 0.0 0.0 0.0 0.0 0.0 0.0 0.0 0.0 0.0 0.0 0.0 0.0 0.1 0.1 0.0 0.0 0.2 0.1 0.0 0.6 0.8 1.1 1.8 2.2 2.6 2.7 3.9 6.0 4.7 nan nan
0.0 0.0 0.0 0.0 0.0 0.0 0.0 0.0 0.0 0.0 0.0 0.0 0.0 0.0 0.0 0.0 0.0 0.0 0.0 0.0 0.0 0.0 0.0 0.0 0.0 0.0 0.0 0.0 0.0 0.0 0.2 0.5 0.5 0.7 0.8 0.7 1.1 1.5 1.5 1.8 2.0 2.2 2.1 1.4
0.0 0.0 0.0 0.0 0.0 0.0 0.0 0.0 0.0 0.0 0.0 0.0 0.0 0.0 0.0 0.0 0.0 0.0 0.0 0.0 0.1 0.1 0.0 1.0 0.0 0.1 0.1 0.0 0.0 0.0 0.3 0.0 0.3 0.8 1.1 1.4 1.2 1.5 1.5 1.5 1.5 1.4 1.4 1.4
0.0 0.0 0.0 0.0 0.0 0.0 0.0 0.0 0.0 0.0 0.1 0.2 0.2 0.1 0.1 0.1 0.1 0.1 0.0 0.1 0.6 0.7 0.7 0.4 1.6 1.3 0.8 0.2 0.1 0.5 0.4 0.5 0.0 0.7 1.0 1.1 1.4 1.7 1.5 1.9 1.9 1.6 2.0 3.0
0.0 0.0 0.0 0.0 0.0 0.0 0.0 0.1 0.2 0.3 0.3 0.3 0.2 0.3 1.3 1.4 0.3 0.4 0.4 0.3 1.0 2.2 0.7 1.1 1.5 1.9 1.3 0.2 0.1 0.3 0.5 0.6 0.6 0.9 0.9 1.7 1.4 1.1 1.5 1.5 1.4 1.7 2.2 2.5
0.0 0.0 0.0 0.0 0.0 0.0 0.1 0.3 0.2 0.2 0.8 0.3 1.5 2.2 2.4 3.2 1.7 2.2 2.3 5.0 5.3 1.1 2.2 1.1 0.0 0.2 0.1 0.2 0.1 0.5 0.6 1.0 0.9 0.8 0.8 3.3 2.0 1.2 1.9 2.4 2.0 2.5 1.9 2.5
0.1 0.0 0.1 0.3 0.2 0.3 1.0 1.0 0.9 1.1 0.8 0.8 4.0 5.1 3.7 6.9 6.0 6.6 3.5 2.1 0.9 1.6 0.2 0.1 0.1 0.1 0.1 0.0 0.1 0.3 0.5 1.1 0.9 1.6 2.3 1.4 2.9 4.4 2.6 4.8 2.5 3.1 5.9 4.6
0.5 0.4 0.6 0.9 2.3 3.1 5.0 4.6 4.0 3.4 4.7 6.1 5.8 7.8 7.9 5.2 5.4 6.6 2.2 1.1 0.3 0.2 0.1 0.0 0.2 0.3 0.1 0.1 0.1 0.7 1.4 2.5 2.7 1.8 2.2 5.4 7.3 5.0 5.0 5.5 5.1 6.6 8.2 6.2
0.1 0.4 1.9 1.6 0.5 0.9 1.4 0.5 0.2 3.3 3.5 5.9 8.5 9.3 7.4 2.2 4.0 3.1 4.7 0.6 0.7 0.1 0.5 0.5 0.4 0.8 0.8 2.1 0.4 2.2 1.2 1.5 2.5 2.7 3.4 5.6 6.0 9.6 9.9 7.9 8.4 9.2 9.4 9.8
0.1 0.0 0.2 1.1 0.9 0.1 0.1 0.3 4.1 2.8 6.9 6.6 7.5 3.2 1.2 0.8 0.8 1.2 1.6 0.2 0.4 1.5 0.4 0.8 2.4 2.7 3.0 3.6 3.2 4.1 4.7 5.4 5.7 5.5 5.9 9.6 9.3 15.4 8.4 8.1 9.4 10.0 15.2 10.5
0.1 0.1 0.1 0.1 0.1 0.0 0.1 0.1 0.1 0.2 5.1 2.5 4.2 6.2 0.3 2.4 2.9 0.4 0.5 3.0 3.3 8.4 6.7 2.8 4.8 3.8 4.3 6.4 6.8 8.3 7.6 8.6 9.3 10.9 5.6 7.6 15.7 12.1 9.8 14.6 10.1 11.7 13.6 12.0
0.6 0.6 0.3 0.6 0.1 0.8 0.1 0.1 0.2 0.3 0.3 0.3 0.2 0.2 0.2 0.8 2.4 1.7 2.3 2.9 4.8 3.1 4.2 5.2 4.4 5.3 10.4 10.8 10.0 10.7 10.9 9.9 11.4 13.0 10.0 14.7 14.3 20.6 17.5 14.7 18.6 17.2 19.0 16.6
0.1 0.8 0.7 0.1 0.4 0.6 0.6 0.7 0.9 0.9 0.8 2.3 1.8 6.3 4.1 2.4 2.2 2.4 3.9 5.0 3.1 5.5 4.6 11.4 16.5 15.1 13.1 9.7 11.0 11.7 9.2 7.0 9.8 10.6 12.9 13.2 14.1 12.0 14.9 14.0 18.5 22.3 27.5 30.8
0.7 0.2 0.7 0.6 0.6 0.7 0.7 0.8 1.3 1.8 2.3 3.9 4.6 4.9 3.4 5.9 8.3 5.8 7.4 11.0 11.1 13.1 13.7 15.8 14.8 10.1 9.1 13.5 11.8 11.0 10.6 11.0 10.2 9.8 16.5 18.7 18.9 25.4 25.1 25.5 29.6 30.0 27.3 25.3
Water_Equivalent
0.00 0.00 0.00 0.00 0.00 0.00 0.00 0.00 0.01 0.00 0.00 0.00 0.00 0.00 0.00 0.00 0.00 0.00 0.00 0.00 0.00 0.00 0.00 0.00 0.00 0.00 0.00 0.00 0.00 0.00 0.00 0.00 0.00 0.00 0.00 0.00 0.00 0.00 0.00 0.00 0.00 0.00 0.00 0.00
0.00 0.00 0.00 0.00 0.00 0.00 0.00 0.00 0.00 0.00 0.00 0.00 0.00 0.00 0.00 0.00 0.00 0.00 0.00 0.00 0.00 0.00 0.00 0.00 0.00 0.00 0.00 0.00 0.00 0.00 0.00 0.00 0.00 0.00 0.00 0.00 0.00 0.00 0.00 0.00 0.00 0.00 0.00 0.00
0.02 0.00 0.00 0.27 0.00 0.00 0.00 0.00 0.00 0.00 0.00 0.00 0.00 0.00 0.00 0.00 0.00 0.00 0.00 0.00 0.00 0.00 0.00 0.00 0.00 0.00 0.00 0.00 0.00 0.00 0.00 0.00 0.00 0.00 0.00 0.00 0.00 0.00 0.00 0.00 0.00 0.00 0.00 0.00
0.36 0.09 2.42 0.02 0.00 0.00 0.00 0.00 0.00 0.00 0.00 0.00 0.00 0.00 0.00 0.00 0.00 0.00 0.00 0.00 0.00 0.00 0.00 0.00 0.00 0.00 0.00 0.00 0.00 0.00 0.00 0.00 0.00 0.00 0.00 0.00 0.00 0.00 0.00 0.00 0.00 0.00 0.00 0.00
1.69 0.62 0.01 0.00 0.00 0.00 0.00 0.00 0.00 0.00 0.00 0.00 0.00 0.00 0.00 0.00 0.00 0.00 0.00 0.00 0.00 0.00 0.00 0.00 0.00 0.00 0.00 0.00 0.00 0.00 0.00 0.00 0.00 0.00 0.00 0.00 0.00 0.00 0.00 0.00 0.00 0.00 0.00 0.00
1.94 1.49 0.80 0.00 0.00 0.00 0.00 0.04 0.00 0.00 0.00 0.00 0.00 0.00 0.00 0.00 0.00 0.00 0.00 0.00 0.00 0.00 0.00 0.00 0.00 0.00 0.00 0.00 0.00 0.00 0.00 0.00 0.00 0.00 0.00 0.00 0.00 0.00 0.00 0.00 0.00 0.13 0.01 0.01
0.32 1.25 0.55 0.00 0.00 0.00 0.09 0.01 0.00 0.00 0.00 0.00 0.00 0.00 0.00 0.00 0.00 0.00 0.00 0.00 0.00 0.00 0.00 0.00 0.00 0.00 0.00 0.01 0.00 0.00 0.00 0.00 0.00 0.00 0.00 0.00 0.00 0.00 0.00 0.01 0.02 0.04 0.02 0.02
0.33 0.82 1.62 0.00 0.00 0.00 0.04 0.00 0.00 0.00 0.00 0.00 0.00 0.00 0.00 0.00 0.00 0.00 0.00 0.00 0.00 0.00 0.00 0.00 0.00 0.00 0.00 0.01 0.01 0.00 0.01 0.00 0.00 0.00 0.00 0.00 0.00 0.00 0.00 0.01 0.03 0.04 0.05 0.19
0.04 0.23 0.00 0.00 0.00 0.00 0.00 0.00 0.00 0.00 0.00 0.00 0.00 0.00 0.00 0.00 0.00 0.00 0.00 0.00 0.00 0.00 0.00 0.00 0.00 0.00 0.00 0.00 0.00 0.01 0.01 0.03 0.02 0.00 0.01 0.00 0.00 0.01 0.14 0.01 0.14 0.05 0.29 0.35
0.02 0.00 0.00 0.00 0.00 0.00 0.00 0.00 0.00 0.00 0.00 0.00 0.00 0.00 0.00 0.00 0.00 0.00 0.00 0.00 0.00 0.00 0.00 0.00 0.00 0.00 0.00 0.00 0.00 0.00 0.00 0.01 0.01 0.02 0.01 0.03 0.18 0.21 0.25 0.28 0.40 0.53 0.60 0.72
0.00 0.00 0.00 0.00 0.00 0.00 0.00 0.00 0.00 0.00 0.00 0.00 0.00 0.00 0.00 0.00 0.00 0.00 0.00 0.00 0.00 0.00 0.00 0.00 0.00 0.00 0.00 0.00 0.00 0.00 0.00 0.00 0.00 0.02 0.01 0.05 0.19 0.63 0.63 0.75 0.60 0.73 0.75 0.68
0.14 0.00 0.00 0.00 0.00 0.00 0.00 0.00 0.00 0.00 0.00 0.00 0.00 0.00 0.00 0.00 0.00 0.00 0.00 0.00 0.00 0.00 0.00 0.00 0.00 0.00 0.00 0.00 0.00 0.00 0.00 0.01 0.06 0.07 0.11 0.15 0.23 0.47 nan nan nan nan nan 0.80
0.00 0.00 0.00 0.00 0.00 0.00 0.00 0.00 0.00 0.00 0.00 0.00 0.00 0.00 0.00 0.00 0.00 nan 0.00 0.00 0.00 0.00 0.00 0.00 0.00 0.00 0.00 0.00 0.00 0.00 0.00 0.00 0.10 0.09 0.15 0.20 0.24 0.34 0.90 1.65 nan nan nan nan
0.00 0.00 0.00 0.00 0.00 0.00 0.00 0.00 0.00 0.00 0.00 0.00 0.00 0.00 0.00 0.00 0.00 0.00 0.00 0.00 0.00 0.00 0.00 0.00 0.00 0.03 0.02 0.00 0.01 0.07 0.03 0.00 0.23 0.34 0.43 0.72 0.86 0.98 0.99 1.24 1.65 1.33 nan nan
0.00 0.00 0.00 0.00 0.00 0.00 0.00 0.00 0.00 0.00 0.00 0.00 0.00 0.00 0.00 0.00 0.00 0.00 0.00 0.00 0.00 0.00 0.00 0.00 0.00 0.00 0.00 0.00 0.00 0.00 0.07 0.18 0.21 0.27 0.31 0.29 0.41 0.49 0.45 0.53 0.58 0.58 0.53 0.37
0.00 0.00 0.00 0.00 0.00 0.00 0.00 0.00 0.00 0.00 0.00 0.00 0.00 0.00 0.00 0.00 0.00 0.00 0.00 0.00 0.02 0.03 0.00 0.28 0.01 0.02 0.02 0.01 0.01 0.01 0.12 0.00 0.13 0.27 0.38 0.44 0.39 0.43 0.41 0.40 0.40 0.37 0.36 0.36
0.00 0.01 0.00 0.00 0.00 0.00 0.00 0.00 0.00 0.00 0.02 0.03 0.03 0.02 0.01 0.01 0.01 0.01 0.00 0.02 0.13 0.17 0.15 0.09 0.39 0.38 0.20 0.07 0.02 0.18 0.17 0.20 0.00 0.23 0.31 0.33 0.41 0.45 0.39 0.50 0.51 0.41 0.53 0.84
0.00 0.00 0.00 0.00 0.00 0.00 0.01 0.01 0.04 0.06 0.07 0.07 0.04 0.10 0.40 0.38 0.07 0.08 0.08 0.07 0.23 0.50 0.17 0.28 0.35 0.44 0.32 0.06 0.03 0.12 0.19 0.20 0.22 0.29 0.28 0.48 0.38 0.31 0.41 0.40 0.37 0.43 0.56 0.61
0.00 0.00 0.00 0.00 0.00 0.00 0.02 0.05 0.04 0.03 0.21 0.08 0.43 0.56 0.63 0.85 0.41 0.52 0.55 1.23 1.31 0.24 0.52 0.26 0.00 0.04 0.03 0.04 0.04 0.15 0.21 0.35 0.27 0.25 0.26 1.09 0.59 0.32 0.52 0.67 0.54 0.70 0.50 0.60
0.02 0.01 0.03 0.07 0.04 0.07 0.19 0.20 0.20 0.26 0.22 0.20 1.10 1.35 0.91 1.67 1.52 1.62 0.83 0.46 0.20 0.40 0.04 0.03 0.03 0.01 0.02 0.00 0.04 0.10 0.19 0.39 0.27 0.48 0.68 0.38 0.86 1.32 0.72 1.58 0.66 0.86 1.68 1.24
0.12 0.09 0.14 0.22 0.55 0.83 1.28 1.23 1.00 0.76 1.09 1.53 1.51 1.89 1.84 1.26 1.28 1.58 0.50 0.25 0.06 0.06 0.02 0.00 0.05 0.08 0.02 0.02 0.03 0.23 0.46 0.79 0.87 0.54 0.64 1.61 2.20 1.47 1.37 1.58 1.45 1.90 2.31 1.68
0.03 0.10 0.48 0.40 0.11 0.20 0.34 0.12 0.05 0.76 0.80 1.36 2.06 2.27 1.70 0.48 0.87 0.69 1.07 0.15 0.18 0.04 0.14 0.13 0.10 0.27 0.26 0.70 0.14 0.74 0.36 0.46 0.72 0.77 0.93 1.59 1.63 2.57 2.62 2.12 2.17 2.46 2.52 2.61
0.02 0.01 0.05 0.26 0.21 0.02 0.03 0.08 0.97 0.69 1.47 1.40 1.59 0.75 0.30 0.21 0.20 0.31 0.38 0.04 0.11 0.50 0.10 0.22 0.78 0.89 0.99 1.12 1.01 1.28 1.43 1.53 1.55 1.36 1.46 2.38 2.20 3.68 1.79 1.74 2.10 2.21 3.39 2.23
0.02 0.02 0.02 0.02 0.02 0.01 0.02 0.02 0.02 0.03 1.10 0.53 0.87 1.32 0.08 0.62 0.83 0.11 0.12 0.99 1.08 2.83 1.95 0.76 1.43 1.27 1.42 1.74 1.75 2.13 1.94 2.16 2.23 2.50 1.15 2.43 3.63 2.58 1.98 3.06 1.88 2.36 2.71 2.38
0.13 0.14 0.06 0.15 0.02 0.20 0.02 0.02 0.05 0.06 0.06 0.07 0.04 0.05 0.03 0.18 0.66 0.40 0.62 0.70 1.54 0.89 1.06 1.63 1.45 1.75 2.57 2.64 2.37 2.46 2.44 2.08 2.38 2.80 1.98 3.11 2.88 4.27 3.58 2.70 3.21 3.27 3.27 2.86
0.02 0.21 0.18 0.03 0.11 0.16 0.16 0.17 0.20 0.22 0.19 0.57 0.39 1.64 1.06 0.59 0.50 0.51 0.84 1.43 0.64 1.69 0.90 2.57 3.52 3.41 3.02 2.06 2.35 2.44 1.78 1.31 1.85 1.89 2.24 2.25 2.28 1.84 2.29 2.11 2.93 3.73 4.70 5.11
0.18 0.06 0.17 0.16 0.14 0.17 0.18 0.18 0.31 0.41 0.63 0.98 1.06 1.09 0.72 1.21 1.62 1.34 2.13 2.18 2.15 2.51 2.63 3.23 2.84 2.68 1.65 2.65 2.15 1.83 1.70 1.77 2.78 1.45 2.55 3.03 2.92 4.13 3.78 3.84 4.41 4.80 4.03 3.49
SL_Ratio
nan nan nan nan nan nan nan nan 3.6 nan nan nan nan nan nan nan nan nan nan nan nan nan nan nan nan nan nan nan nan nan nan nan nan nan nan nan nan nan nan nan nan nan nan nan
nan nan nan nan nan nan nan nan nan nan nan nan nan nan nan nan nan nan nan nan nan nan nan nan nan nan nan nan nan nan nan nan nan nan nan nan nan nan nan nan nan nan nan nan
4.0 nan nan 4.4 nan nan nan nan nan nan nan nan nan nan nan nan nan nan nan nan nan nan nan nan nan nan nan nan nan nan nan nan nan nan nan nan nan nan nan nan nan nan nan nan
3.9 3.9 5.6 3.5 nan nan nan nan nan nan nan nan nan nan nan nan nan nan nan nan nan nan nan nan nan nan nan nan nan nan nan nan nan nan nan nan nan nan nan nan nan nan nan nan
4.2 4.0 3.7 nan nan nan nan nan nan nan nan nan nan nan nan nan nan nan nan nan nan nan nan nan nan nan nan nan nan nan nan nan nan nan nan nan nan nan nan nan nan nan nan nan
3.8 5.1 5.2 nan nan nan nan 2.9 nan nan nan nan nan nan nan nan nan nan nan nan nan nan nan nan nan nan nan nan nan nan nan nan nan nan nan nan nan nan nan nan nan 2.7 2.8 3.0
3.7 4.4 4.6 nan nan nan 4.1 3.9 nan nan nan nan nan nan nan nan nan nan nan nan nan nan nan nan nan nan nan 2.4 2.7 nan nan nan nan nan nan nan nan nan nan 2.7 2.9 3.0 2.9 2.6
3.8 4.5 5.7 nan nan nan 2.8 nan nan nan nan nan nan nan nan nan nan nan nan nan nan nan nan nan nan nan nan 2.6 2.4 nan 2.5 nan nan nan nan nan nan nan nan 3.0 2.9 3.3 3.4 3.1
3.9 3.7 nan nan nan nan nan nan nan nan nan nan nan nan nan nan nan nan nan nan nan nan nan nan nan nan nan 2.5 nan 2.6 2.5 2.5 2.5 2.9 2.3 nan nan 2.6 2.8 3.2 3.1 3.4 3.2 3.5
3.5 nan nan nan nan nan nan nan nan nan nan nan nan nan nan nan nan nan nan nan nan nan nan nan nan nan nan nan nan nan 2.7 2.5 2.6 2.6 2.4 2.6 2.5 2.5 2.6 2.9 2.9 2.9 3.3 3.4
nan nan nan nan nan nan nan nan nan nan nan nan nan nan nan nan nan nan nan nan nan nan nan nan nan nan nan nan nan nan nan nan nan 2.5 2.6 2.5 2.5 2.5 2.5 2.5 2.7 2.9 2.9 2.9
2.6 nan nan nan nan nan nan nan nan nan nan nan nan nan nan nan nan nan nan nan nan nan nan nan nan nan nan nan nan nan nan 2.5 2.5 2.5 2.5 2.5 2.5 2.7 nan nan nan nan nan 2.6
nan nan nan nan nan nan nan nan nan nan nan nan nan nan nan nan nan nan nan nan nan nan nan nan 1.7 nan nan nan nan nan nan nan 2.5 2.5 2.5 2.5 2.6 2.9 3.4 2.9 nan nan nan nan
nan nan nan nan nan nan nan nan nan nan nan nan nan nan nan nan nan nan nan nan nan nan nan nan nan 2.9 2.6 2.5 2.4 2.6 2.4 nan 2.5 2.5 2.5 2.5 2.5 2.6 2.8 3.2 3.7 3.6 nan nan
nan nan nan nan nan nan nan nan nan nan nan nan nan nan nan nan nan nan nan nan nan nan nan nan nan nan nan nan nan 0.0 2.5 2.5 2.5 2.5 2.6 2.5 2.7 3.1 3.2 3.5 3.5 3.8 3.9 3.8
nan nan nan nan nan nan nan nan nan nan nan nan nan nan nan nan nan nan nan nan 3.1 3.2 nan 3.5 3.4 3.1 2.8 2.4 2.3 2.7 2.5 2.5 2.6 2.8 2.9 3.1 3.2 3.5 3.7 3.7 3.8 3.8 4.0 3.9
nan 4.2 nan 0.0 nan nan nan nan nan nan 5.0 5.0 5.0 5.1 5.1 5.1 5.3 5.1 5.0 5.6 4.5 4.3 4.5 4.5 4.2 3.3 3.7 3.0 2.7 2.5 2.5 2.6 nan 2.9 3.1 3.3 3.6 3.7 3.8 3.9 3.8 3.9 3.7 3.6
nan nan nan nan nan nan 5.0 4.9 4.9 5.0 5.1 5.1 5.0 3.4 3.3 3.5 4.8 5.0 4.9 4.6 4.4 4.4 4.1 4.2 4.2 4.2 4.2 3.4 3.3 2.8 2.9 3.0 3.0 3.1 3.2 3.6 3.6 3.5 3.6 3.7 3.8 3.8 3.9 4.0
nan nan nan nan nan nan 4.9 5.1 5.1 5.1 4.0 3.8 3.5 3.9 3.8 3.8 4.1 4.1 4.1 4.1 4.0 4.4 4.3 4.3 nan 4.5 4.0 4.2 3.2 3.1 3.0 3.0 3.2 3.3 3.2 3.1 3.4 3.6 3.6 3.6 3.7 3.6 3.8 4.2
3.8 3.3 4.4 4.9 4.4 4.4 5.2 5.2 4.5 4.1 3.7 3.8 3.6 3.8 4.1 4.1 3.9 4.1 4.2 4.4 4.3 4.0 4.1 4.1 4.3 4.0 4.0 4.0 3.2 3.0 2.8 2.8 3.3 3.3 3.3 3.6 3.4 3.4 3.5 3.1 3.8 3.6 3.5 3.7
4.3 4.0 4.0 4.1 4.2 3.8 3.9 3.7 4.0 4.4 4.3 4.0 3.9 4.1 4.3 4.1 4.2 4.2 4.3 4.2 4.6 4.4 4.3 3.8 3.6 3.4 3.4 3.1 3.1 3.0 3.0 3.1 3.1 3.4 3.4 3.3 3.3 3.4 3.6 3.5 3.6 3.5 3.5 3.7
3.8 4.1 3.9 4.1 4.2 4.3 4.1 3.9 4.1 4.3 4.3 4.3 4.1 4.1 4.3 4.5 4.6 4.6 4.4 4.1 4.0 3.0 3.6 3.6 3.8 3.1 3.1 3.0 3.2 3.0 3.3 3.3 3.4 3.5 3.7 3.5 3.7 3.7 3.8 3.7 3.9 3.7 3.7 3.8
3.9 3.6 3.8 4.2 4.1 4.0 4.3 4.3 4.2 4.1 4.7 4.7 4.7 4.3 3.9 3.9 3.9 4.0 4.3 5.3 3.9 3.1 3.8 3.6 3.1 3.0 3.0 3.2 3.1 3.2 3.3 3.5 3.7 4.0 4.0 4.0 4.2 4.2 4.7 4.6 4.5 4.5 4.5 4.7
3.8 3.7 3.9 4.0 4.2 4.4 4.4 4.2 4.5 4.6 4.6 4.7 4.9 4.7 4.1 3.8 3.5 4.0 4.1 3.0 3.0 3.0 3.5 3.7 3.4 3.0 3.0 3.7 3.9 3.9 3.9 4.0 4.2 4.4 4.8 3.1 4.3 4.7 4.9 4.8 5.4 4.9 5.0 5.0
4.3 4.2 4.2 4.3 4.3 4.1 4.4 4.5 4.3 4.4 4.5 4.3 4.9 4.7 4.6 4.1 3.6 4.3 3.7 4.1 3.1 3.5 4.0 3.2 3.0 3.0 4.0 4.1 4.2 4.4 4.5 4.7 4.8 4.7 5.1 4.7 4.9 4.8 4.9 5.4 5.8 5.3 5.8 5.8
4.1 3.8 3.9 4.3 3.9 3.9 3.9 4.1 4.2 4.2 4.2 4.1 4.5 3.9 3.8 4.1 4.4 4.7 4.6 3.5 4.9 3.2 5.1 4.4 4.7 4.4 4.3 4.7 4.7 4.8 5.2 5.3 5.3 5.6 5.7 5.9 6.2 6.5 6.5 6.6 6.3 6.0 5.9 6.0
4.0 3.8 3.9 4.0 4.1 4.1 4.1 4.2 4.1 4.3 3.7 4.0 4.4 4.5 4.6 4.9 5.1 4.3 3.5 5.0 5.2 5.2 5.2 4.9 5.2 3.8 5.6 5.1 5.5 6.0 6.2 6.2 3.7 6.8 6.5 6.2 6.5 6.1 6.6 6.6 6.7 6.3 6.8 7.2